TimeEDT,TemperatureF,Dew PointF,Humidity,Sea Level PressureIn,VisibilityMPH,Wind Direction,Wind SpeedMPH,Gust SpeedMPH,PrecipitationIn,Events,Conditions,WindDirDegrees,DateUTC
12:56 AM,46.9,41.0,80,30.03,-9999.0,South,3.5,-,N/A,,Unknown,170,2013-06-15 04:56:00
1:56 AM,46.9,39.9,77,30.00,-9999.0,SSW,3.5,-,N/A,,Unknown,200,2013-06-15 05:56:00
2:56 AM,52.0,37.9,59,30.01,-9999.0,Calm,Calm,-,N/A,,Unknown,0,2013-06-15 06:56:00
3:56 AM,55.0,36.0,49,29.99,-9999.0,SSW,6.9,-,N/A,,Unknown,200,2013-06-15 07:56:00
4:56 AM,57.0,37.9,49,29.97,-9999.0,SSW,8.1,-,N/A,,Unknown,200,2013-06-15 08:56:00
5:56 AM,57.9,37.9,47,29.98,-9999.0,SSW,6.9,-,N/A,,Unknown,210,2013-06-15 09:56:00
6:56 AM,59.0,39.9,49,29.99,-9999.0,SSW,8.1,-,N/A,,Unknown,210,2013-06-15 10:56:00
7:56 AM,60.1,39.9,47,29.99,-9999.0,SSW,10.4,-,N/A,,Unknown,210,2013-06-15 11:56:00
8:56 AM,61.0,43.0,52,29.98,-9999.0,SSW,10.4,-,N/A,,Unknown,200,2013-06-15 12:56:00
9:56 AM,59.0,46.9,64,29.96,-9999.0,South,11.5,-,0.01,,Unknown,190,2013-06-15 13:56:00
10:56 AM,61.0,48.9,64,29.96,-9999.0,Variable,3.5,-,N/A,,Unknown,0,2013-06-15 14:56:00
11:56 AM,64.0,50.0,60,29.95,-9999.0,South,6.9,-,N/A,,Unknown,180,2013-06-15 15:56:00
12:56 PM,69.1,54.0,58,29.93,-9999.0,SSW,5.8,-,N/A,,Unknown,210,2013-06-15 16:56:00
1:56 PM,75.0,57.0,53,29.90,-9999.0,South,9.2,-,N/A,,Unknown,180,2013-06-15 17:56:00
2:56 PM,75.9,55.0,48,29.88,-9999.0,South,11.5,19.6,N/A,,Unknown,190,2013-06-15 18:56:00
3:56 PM,75.9,55.9,50,29.88,-9999.0,South,11.5,18.4,N/A,,Unknown,180,2013-06-15 19:56:00
4:56 PM,73.9,57.0,55,29.86,-9999.0,South,9.2,17.3,N/A,,Unknown,170,2013-06-15 20:56:00
5:56 PM,72.0,57.9,61,29.85,-9999.0,South,8.1,-,N/A,,Unknown,170,2013-06-15 21:56:00
6:56 PM,70.0,57.0,63,29.83,-9999.0,South,10.4,-,N/A,,Unknown,190,2013-06-15 22:56:00
7:56 PM,68.0,57.0,68,29.83,-9999.0,SSW,6.9,-,N/A,,Unknown,210,2013-06-15 23:56:00
8:56 PM,66.0,57.9,75,29.83,-9999.0,WSW,3.5,-,N/A,,Unknown,250,2013-06-16 00:56:00
9:56 PM,64.9,59.0,81,29.81,-9999.0,South,5.8,-,N/A,,Unknown,180,2013-06-16 01:56:00
10:56 PM,64.0,59.0,84,29.80,-9999.0,SW,4.6,-,N/A,,Unknown,230,2013-06-16 02:56:00
11:56 PM,63.0,57.9,84,29.78,-9999.0,SSW,4.6,-,N/A,,Unknown,200,2013-06-16 03:56:00